Time,TemperatureF,DewpointF,PressureIn,WindDirection,WindDirectionDegrees,WindSpeedMPH,WindSpeedGustMPH,Humidity,HourlyPrecipIn,Conditions,Clouds,dailyrainin,SoftwareType,DateUTC
2013-08-26 00:12:00,55.9,54.0,29.90,WSW,243,0.0,0.0,94,0.00,,,0.00,weatherlink.com 1.10,2013-08-26 07:12:00,
2013-08-26 00:27:00,55.9,55.0,29.90,WSW,243,0.0,0.0,95,0.00,,,0.00,weatherlink.com 1.10,2013-08-26 07:27:00,
2013-08-26 00:42:00,55.8,54.0,29.91,WSW,243,0.0,0.0,95,0.00,,,0.00,weatherlink.com 1.10,2013-08-26 07:42:00,
2013-08-26 00:57:00,55.8,54.0,29.91,WSW,243,0.0,0.0,95,0.00,,,0.00,weatherlink.com 1.10,2013-08-26 07:57:00,
2013-08-26 01:12:00,55.7,54.0,29.91,WSW,243,0.0,0.0,95,0.00,,,0.00,weatherlink.com 1.10,2013-08-26 08:12:00,
2013-08-26 01:27:00,55.3,54.0,29.91,WSW,243,0.0,1.0,95,0.00,,,0.00,weatherlink.com 1.10,2013-08-26 08:27:00,
2013-08-26 01:42:00,54.6,53.0,29.91,WSW,243,0.0,1.0,95,0.00,,,0.00,weatherlink.com 1.10,2013-08-26 08:42:00,
2013-08-26 01:56:00,54.4,53.0,29.91,WSW,243,0.0,0.0,95,0.00,,,0.00,weatherlink.com 1.10,2013-08-26 08:56:00,
2013-08-26 02:12:00,53.7,52.0,29.90,WSW,243,0.0,0.0,95,0.00,,,0.00,weatherlink.com 1.10,2013-08-26 09:12:00,
2013-08-26 02:27:00,53.5,52.0,29.90,WSW,243,0.0,0.0,95,0.00,,,0.00,weatherlink.com 1.10,2013-08-26 09:27:00,
2013-08-26 02:42:00,54.3,53.0,29.91,WSW,243,0.0,0.0,96,0.00,,,0.00,weatherlink.com 1.10,2013-08-26 09:42:00,
2013-08-26 02:57:00,55.1,54.0,29.92,WSW,243,0.0,0.0,96,0.00,,,0.00,weatherlink.com 1.10,2013-08-26 09:57:00,
2013-08-26 03:12:00,56.0,55.0,29.92,WSW,243,0.0,1.0,96,0.00,,,0.00,weatherlink.com 1.10,2013-08-26 10:12:00,
2013-08-26 03:27:00,56.9,56.0,29.92,WSW,243,0.0,0.0,96,0.00,,,0.00,weatherlink.com 1.10,2013-08-26 10:27:00,
2013-08-26 03:42:00,56.7,56.0,29.93,WSW,252,0.0,2.0,96,0.00,,,0.00,weatherlink.com 1.10,2013-08-26 10:42:00,
2013-08-26 03:57:00,56.4,55.0,29.93,WSW,252,0.0,0.0,95,0.00,,,0.00,weatherlink.com 1.10,2013-08-26 10:57:00,
2013-08-26 04:12:00,56.1,55.0,29.93,WSW,252,0.0,0.0,95,0.00,,,0.00,weatherlink.com 1.10,2013-08-26 11:12:00,
2013-08-26 07:56:00,58.4,57.0,29.96,WSW,254,0.0,1.0,96,0.00,,,0.00,weatherlink.com 1.10,2013-08-26 14:56:00,
2013-08-26 08:12:00,58.7,58.0,29.96,WSW,254,0.0,0.0,96,0.00,,,0.00,weatherlink.com 1.10,2013-08-26 15:12:00,
2013-08-26 08:27:00,59.0,58.0,29.97,WSW,254,0.0,0.0,96,0.00,,,0.00,weatherlink.com 1.10,2013-08-26 15:27:00,
2013-08-26 08:42:00,59.4,58.0,29.97,WSW,254,0.0,2.0,95,0.00,,,0.00,weatherlink.com 1.10,2013-08-26 15:42:00,
2013-08-26 08:57:00,60.0,58.0,29.97,WSW,254,0.0,1.0,94,0.00,,,0.00,weatherlink.com 1.10,2013-08-26 15:57:00,
2013-08-26 09:12:00,61.0,59.0,29.97,WSW,254,0.0,3.0,92,0.00,,,0.00,weatherlink.com 1.10,2013-08-26 16:12:00,
2013-08-26 09:27:00,62.0,58.0,29.97,WNW,299,0.0,3.0,87,0.00,,,0.00,weatherlink.com 1.10,2013-08-26 16:27:00,
2013-08-26 09:43:00,63.7,59.0,29.97,WNW,294,2.0,4.0,83,0.00,,,0.00,weatherlink.com 1.10,2013-08-26 16:43:00,
2013-08-26 09:58:00,65.1,59.0,29.97,WNW,294,0.0,2.0,81,0.00,,,0.00,weatherlink.com 1.10,2013-08-26 16:58:00,
2013-08-26 10:13:00,67.0,60.0,29.96,West,259,1.0,2.0,77,0.00,,,0.00,weatherlink.com 1.10,2013-08-26 17:13:00,
2013-08-26 10:28:00,67.9,59.0,29.96,WNW,303,0.0,4.0,74,0.00,,,0.00,weatherlink.com 1.10,2013-08-26 17:28:00,
2013-08-26 10:43:00,69.4,60.0,29.96,West,275,0.0,4.0,71,0.00,,,0.00,weatherlink.com 1.10,2013-08-26 17:43:00,
2013-08-26 10:58:00,71.3,60.0,29.96,WNW,282,0.0,4.0,68,0.00,,,0.00,weatherlink.com 1.10,2013-08-26 17:58:00,
2013-08-26 11:13:00,72.4,60.0,29.95,West,260,0.0,3.0,65,0.00,,,0.00,weatherlink.com 1.10,2013-08-26 18:13:00,
2013-08-26 11:28:00,73.9,60.0,29.95,NNW,327,2.0,4.0,63,0.00,,,0.00,weatherlink.com 1.10,2013-08-26 18:28:00,
2013-08-26 11:43:00,74.7,61.0,29.94,South,171,0.0,5.0,62,0.00,,,0.00,weatherlink.com 1.10,2013-08-26 18:43:00,
2013-08-26 11:58:00,77.2,61.0,29.94,SSE,161,3.0,4.0,58,0.00,,,0.00,weatherlink.com 1.10,2013-08-26 18:58:00,
2013-08-26 12:13:00,77.1,60.0,29.93,West,266,0.0,5.0,56,0.00,,,0.00,weatherlink.com 1.10,2013-08-26 19:13:00,
2013-08-26 12:28:00,77.3,61.0,29.92,WSW,257,0.0,6.0,57,0.00,,,0.00,weatherlink.com 1.10,2013-08-26 19:28:00,
2013-08-26 12:43:00,79.6,62.0,29.91,West,259,2.0,4.0,55,0.00,,,0.00,weatherlink.com 1.10,2013-08-26 19:43:00,
2013-08-26 12:58:00,80.1,62.0,29.91,SSE,162,2.0,6.0,55,0.00,,,0.00,weatherlink.com 1.10,2013-08-26 19:58:00,
2013-08-26 13:13:00,80.3,63.0,29.91,SSE,160,2.0,4.0,55,0.00,,,0.00,weatherlink.com 1.10,2013-08-26 20:13:00,
2013-08-26 13:28:00,80.5,61.0,29.90,SW,227,0.0,5.0,52,0.00,,,0.00,weatherlink.com 1.10,2013-08-26 20:28:00,
2013-08-26 13:43:00,81.1,60.0,29.90,West,276,0.0,7.0,48,0.00,,,0.00,weatherlink.com 1.10,2013-08-26 20:43:00,
2013-08-26 13:58:00,80.3,58.0,29.90,NW,305,1.0,10.0,47,0.00,,,0.00,weatherlink.com 1.10,2013-08-26 20:58:00,
2013-08-26 14:13:00,79.8,57.0,29.90,WNW,288,6.0,10.0,46,0.00,,,0.00,weatherlink.com 1.10,2013-08-26 21:13:00,
2013-08-26 14:28:00,79.7,58.0,29.89,WNW,301,4.0,7.0,47,0.00,,,0.00,weatherlink.com 1.10,2013-08-26 21:28:00,
2013-08-26 14:43:00,79.4,57.0,29.88,West,272,4.0,8.0,47,0.00,,,0.00,weatherlink.com 1.10,2013-08-26 21:43:00,
2013-08-26 14:58:00,79.5,57.0,29.88,WNW,294,0.0,10.0,47,0.00,,,0.00,weatherlink.com 1.10,2013-08-26 21:58:00,
2013-08-26 15:13:00,79.5,57.0,29.87,WSW,254,3.0,10.0,47,0.00,,,0.00,weatherlink.com 1.10,2013-08-26 22:13:00,
2013-08-26 15:28:00,79.8,57.0,29.86,WNW,285,7.0,8.0,45,0.00,,,0.00,weatherlink.com 1.10,2013-08-26 22:28:00,
2013-08-26 15:44:00,80.3,58.0,29.86,WSW,241,4.0,12.0,46,0.00,,,0.00,weatherlink.com 1.10,2013-08-26 22:44:00,
2013-08-26 15:59:00,80.5,57.0,29.86,West,269,3.0,10.0,45,0.00,,,0.00,weatherlink.com 1.10,2013-08-26 22:59:00,
2013-08-26 16:14:00,79.8,57.0,29.86,WNW,282,3.0,9.0,46,0.00,,,0.00,weatherlink.com 1.10,2013-08-26 23:14:00,
2013-08-26 16:29:00,80.3,57.0,29.86,West,265,2.0,10.0,45,0.00,,,0.00,weatherlink.com 1.10,2013-08-26 23:29:00,
2013-08-26 16:44:00,80.5,58.0,29.85,WSW,245,1.0,5.0,47,0.00,,,0.00,weatherlink.com 1.10,2013-08-26 23:44:00,
2013-08-26 16:59:00,80.8,59.0,29.85,WSW,247,5.0,8.0,47,0.00,,,0.00,weatherlink.com 1.10,2013-08-26 23:59:00,
2013-08-26 17:14:00,80.0,58.0,29.85,WNW,294,1.0,8.0,47,0.00,,,0.00,weatherlink.com 1.10,2013-08-27 00:14:00,
2013-08-26 17:29:00,79.3,58.0,29.85,WSW,253,4.0,8.0,48,0.00,,,0.00,weatherlink.com 1.10,2013-08-27 00:29:00,
2013-08-26 17:44:00,78.2,58.0,29.85,West,259,1.0,7.0,50,0.00,,,0.00,weatherlink.com 1.10,2013-08-27 00:44:00,
2013-08-26 17:59:00,78.5,58.0,29.84,West,273,3.0,7.0,50,0.00,,,0.00,weatherlink.com 1.10,2013-08-27 00:59:00,
2013-08-26 18:14:00,77.6,58.0,29.84,WSW,254,1.0,5.0,52,0.00,,,0.00,weatherlink.com 1.10,2013-08-27 01:14:00,
2013-08-26 18:29:00,76.9,58.0,29.84,WNW,296,1.0,4.0,52,0.00,,,0.00,weatherlink.com 1.10,2013-08-27 01:29:00,
2013-08-26 18:44:00,76.5,58.0,29.84,WSW,245,1.0,6.0,53,0.00,,,0.00,weatherlink.com 1.10,2013-08-27 01:44:00,
2013-08-26 18:59:00,75.9,58.0,29.84,West,263,0.0,4.0,54,0.00,,,0.00,weatherlink.com 1.10,2013-08-27 01:59:00,
2013-08-26 19:14:00,75.2,58.0,29.84,West,267,0.0,1.0,55,0.00,,,0.00,weatherlink.com 1.10,2013-08-27 02:14:00,
2013-08-26 19:29:00,73.8,57.0,29.84,West,267,0.0,0.0,57,0.00,,,0.00,weatherlink.com 1.10,2013-08-27 02:29:00,
2013-08-26 19:44:00,72.0,58.0,29.84,West,267,0.0,1.0,61,0.00,,,0.00,weatherlink.com 1.10,2013-08-27 02:44:00,
2013-08-26 19:59:00,69.5,57.0,29.84,West,265,0.0,1.0,64,0.00,,,0.00,weatherlink.com 1.10,2013-08-27 02:59:00,
2013-08-26 20:14:00,67.2,56.0,29.85,SSE,147,0.0,3.0,68,0.00,,,0.00,weatherlink.com 1.10,2013-08-27 03:14:00,
2013-08-26 20:29:00,65.4,55.0,29.85,SE,145,3.0,4.0,70,0.00,,,0.00,weatherlink.com 1.10,2013-08-27 03:29:00,
2013-08-26 20:44:00,64.0,55.0,29.85,SE,130,0.0,3.0,73,0.00,,,0.00,weatherlink.com 1.10,2013-08-27 03:44:00,
2013-08-26 20:59:00,62.9,55.0,29.86,SE,140,0.0,3.0,74,0.00,,,0.00,weatherlink.com 1.10,2013-08-27 03:59:00,
2013-08-26 21:14:00,62.0,54.0,29.86,SE,132,0.0,2.0,76,0.00,,,0.00,weatherlink.com 1.10,2013-08-27 04:14:00,
2013-08-26 21:29:00,61.2,54.0,29.86,SE,132,0.0,0.0,77,0.00,,,0.00,weatherlink.com 1.10,2013-08-27 04:29:00,
2013-08-26 21:44:00,60.4,54.0,29.86,SE,132,0.0,0.0,79,0.00,,,0.00,weatherlink.com 1.10,2013-08-27 04:44:00,
2013-08-26 21:59:00,59.4,53.0,29.86,SE,132,0.0,0.0,80,0.00,,,0.00,weatherlink.com 1.10,2013-08-27 04:59:00,
2013-08-26 22:14:00,58.6,53.0,29.86,SE,132,0.0,0.0,82,0.00,,,0.00,weatherlink.com 1.10,2013-08-27 05:14:00,
2013-08-26 22:29:00,57.9,53.0,29.86,SE,132,0.0,0.0,83,0.00,,,0.00,weatherlink.com 1.10,2013-08-27 05:29:00,
2013-08-26 22:44:00,57.3,53.0,29.86,SE,132,0.0,0.0,85,0.00,,,0.00,weatherlink.com 1.10,2013-08-27 05:44:00,
2013-08-26 22:59:00,56.8,53.0,29.86,SE,132,0.0,0.0,86,0.00,,,0.00,weatherlink.com 1.10,2013-08-27 05:59:00,
2013-08-26 23:14:00,56.4,53.0,29.86,SE,132,0.0,0.0,87,0.00,,,0.00,weatherlink.com 1.10,2013-08-27 06:14:00,
2013-08-26 23:29:00,56.0,53.0,29.86,SE,132,0.0,0.0,88,0.00,,,0.00,weatherlink.com 1.10,2013-08-27 06:29:00,
2013-08-26 23:44:00,55.7,52.0,29.86,SE,132,0.0,0.0,88,0.00,,,0.00,weatherlink.com 1.10,2013-08-27 06:44:00,
2013-08-26 23:59:00,55.3,52.0,29.86,SE,132,0.0,0.0,89,0.00,,,0.00,weatherlink.com 1.10,2013-08-27 06:59:00,